Location: Di�ribana
(14.9139°N, 2.9603°W)
Time: 18:26:30
(UTC+00:00)

Daily predictions for brighter satellites

Satellite Brightness Start Highest point End
(mag) Time Altitude Azimuth Time Altitude Azimuth Time Altitude Azimuth
Cosmos 1939 Rocket 4.4 18:24:17 10° ESE 18:26:22 14° ENE 18:28:27 10° NE
CCE 1 Rocket 3.7 18:24:38 10° WSW 18:30:26 88° SSE 18:34:22 10° ENE
Iridium 96 4.3 18:29:16 10° NNE 18:31:38 35° E 18:34:08 10° SSE
Cosmos 2219 Rocket 2.5 18:27:21 10° NNW 18:33:00 76° WSW 18:38:35 10° S
Cosmos 494 Rocket 4.1 18:28:14 10° N 18:33:12 52° ENE 18:38:11 10° SSE
Chunghua 1 4.4 18:29:44 10° NW 18:33:22 70° NNE 18:37:01 10° ESE
Cosmos 1703 3.2 18:31:40 10° S 18:35:35 76° E 18:39:31 10° N
USA 116 3.6 18:33:27 10° N 18:36:30 63° WNW 18:39:40 10° SSW
YAOGAN 1 3.2 18:33:37 10° SE 18:37:27 32° ENE 18:41:17 10° NNE
SWIFT 2.9 18:37:39 10° W 18:41:42 46° N 18:45:13 13° ENE
COSMOS 2428 3.4 18:38:21 10° NNW 18:43:58 61° WSW 18:49:36 10° S
GPS 2-18 Rocket1 3.2 18:40:22 10° WNW 18:44:00 55° NNE 18:47:07 14° E
Cosmos 2218 Rocket 4.2 18:39:53 10° S 18:46:08 79° W 18:52:29 10° N
Cosmos 1461 3.7 18:42:06 10° NNW 18:46:33 62° WSW 18:51:08 10° SSE
USA 234 3.7 18:40:39 10° ESE 18:46:39 40° NE 18:52:37 10° NNW
Centaur AC-112 3.9 18:46:18 10° NNW 18:47:19 12° N 18:48:30 10° NNE
Meteor 2-1 Rocket 4.4 18:41:59 10° N 18:47:31 76° W 18:53:08 10° S
Palapa 6 Rocket 4.4 18:43:50 10° WNW 18:51:06 76° NNE 18:58:47 12° ESE
CSL-04 Debris 4.4 18:46:41 10° SSE 18:51:49 47° ENE 18:56:57 10° N
Meteor 2-10 Rocket 3.8 18:47:07 10° NNE 18:51:56 40° E 18:56:36 10° SSE
Cosmos-2242 2.9 18:48:41 10° N 18:52:55 64° E 18:57:07 10° SSE
CZ-4 R/B 1.3 18:53:46 10° SSE 18:57:42 90° W 19:01:43 10° NNW
USA 238 DEB 3.9 18:54:30 10° S 19:00:45 46° ESE 19:05:51 16° NE
USA 238 3.9 18:54:38 10° S 19:00:53 46° ESE 19:05:54 16° NE
EP 3 4.2 18:58:04 10° SSW 19:01:19 79° ESE 19:02:37 26° NNE
H-2A ROCKET BODY 3.3 18:58:27 10° NW 19:02:51 17° NNW 19:04:45 12° NNE
GPS 2-05 Rocket1 2.8 19:01:12 10° WSW 19:03:39 43° NNW 19:04:33 29° NNE
Cosmos 1241 Rocket 4.4 18:59:19 10° NNW 19:05:27 59° ENE 19:11:40 10° SSE
CZ-2D R/B 3.2 19:01:46 10° SSE 19:05:29 55° ENE 19:09:12 10° N
Cosmos 1339 Rocket 4.4 18:59:59 10° N 19:06:05 71° E 19:12:15 10° S
GPS 2-14 Rocket1 3.8 19:02:35 10° SW 19:06:09 33° SSE 19:08:01 22° ESE
Cosmos 44 Rocket 3.3 19:02:52 10° SSW 19:07:48 81° WNW 19:12:20 12° NNE
ARIANE 5 R/B 3.7 19:04:36 10° WSW 19:10:53 25° SSW 19:13:07 11° SE
Atlas Centaur 2 3.8 19:08:08 10° NW 19:11:35 19° N 19:14:16 14° NNE
OAO 2 Rocket 3.9 19:07:36 10° WSW 19:12:18 46° NNW 19:15:14 21° NNE
Fermi 3.8 19:11:01 10° WSW 19:15:05 67° SSE 19:16:31 37° E
CSL-04 Rocket 3.6 19:12:05 10° SSE 19:17:30 90° W 19:22:59 10° NNW
CZ-2C R/B 4.2 19:16:44 32° ENE 19:17:45 37° E 19:21:52 10° SSE
Intelsat 5-2 Rocket 3.0 19:15:06 10° WSW 19:18:03 87° NNW 19:20:38 30° ENE
OAO 3 Rocket 4.2 19:14:36 10° W 19:18:52 36° NNW 19:21:11 22° NNE
Cosmos 1934 Rocket 4.4 19:19:06 10° SSE 19:24:42 37° E 19:26:17 32° ENE
Delta 7925 Rocket 4.2 19:17:56 10° WNW 19:25:57 77° SSW 19:30:11 22° ESE
Cosmos 2237 Rocket 2.3 19:21:08 10° NNW 19:26:43 75° WSW 19:32:19 10° S
Cosmos 1371 Rocket 3.9 19:24:37 10° S 19:29:41 59° ESE 19:31:24 39° NE
STARLINK-67 4.0 19:28:19 10° SW 19:29:54 33° SW 19:29:54 33° SW
Aurora 2 Rocket 4.5 19:20:49 10° WNW 19:31:05 57° NNE 19:34:53 34° ENE
Cosmos 2227 4.3 19:27:02 10° SSW 19:32:46 76° WNW 19:37:20 17° N
Cosmos 1455 3.6 19:29:31 10° NNW 19:33:03 38° W 19:36:32 10° SSW
In-Cosmos 22 Rocket 4.5 19:28:14 10° SSE 19:33:45 45° E 19:34:34 42° ENE
GPS 2-12 Rocket1 3.1 19:30:30 10° WNW 19:35:19 80° SSW 19:36:28 51° ESE
IRS-1A Rocket 4.4 19:33:44 10° SSE 19:39:24 54° ENE 19:45:00 10° N
ADEOS Rocket 4.3 19:33:27 10° N 19:40:14 49° WNW 19:47:32 10° SSW
Meteor 1-27 4.2 19:35:55 10° N 19:41:20 53° E 19:46:47 10° SSE
Delta 2 Rocket 4.0 19:41:08 10° SW 19:46:40 58° SE 19:47:00 56° SE
BREEZE-M DEB (TANK) 3.9 19:39:56 10° NNW 19:45:56 42° N 19:45:56 42° N
SL-16 R/B 3.6 19:43:44 10° N 19:45:51 23° N 19:45:51 23° N
ASTRO E2 4.0 19:46:45 10° W 19:50:22 35° SSW 19:50:55 33° SSW
NOSS 3-2 (C) 3.1 19:48:14 10° SSW 19:53:28 65° SE 19:53:28 65° SE
Cosmos 2058 3.8 19:51:07 10° S 19:53:55 42° SSW 19:53:55 42° SSW
CZ-4C R/B 4.1 19:48:43 10° NW 19:56:28 46° WSW 20:04:24 10° S
Cosmos 1624 Rocket 4.1 19:53:02 10° SSW 19:58:20 76° WNW 19:59:08 63° NNW
ATLAS 3B R/B 3.6 19:54:07 10° S 19:58:26 30° SE 19:58:26 30° SE
Ariane Rocket 3.0 19:55:35 10° S 20:00:37 76° WSW 20:05:40 10° NNW
FALCON 9 R/B 4.1 19:45:48 10° W 20:02:42 34° NW 20:05:55 25° N
Cosmos 2263 Rocket 3.0 19:59:15 10° SW 20:04:33 48° WNW 20:06:43 32° NNW
Cosmos 2056 Rocket 4.1 20:08:15 10° SSW 20:13:15 52° WNW 20:13:27 52° WNW
NOSS 3-2 (A) 4.2 20:09:19 10° SW 20:14:24 40° WNW 20:15:37 35° NNW
Ariane H10+ 4.0 20:13:23 10° SSW 20:16:59 25° SSE 20:16:59 25° SSE
CENTAUR R/B 3.1 20:16:56 10° SSW 20:20:07 39° SSW 20:20:07 39° SSW
ATLAS CENTAUR Rocket 3.8 20:21:54 10° SW 20:23:16 21° SSW 20:23:16 21° SSW
H-2A R/B 4.3 20:29:24 10° WSW 21:28:11 60° WNW 21:28:11 60° WNW
